Probability
48 23 10 3 0 0 0 0 0 0 0 0 0 0 0 0 0 0 0 10 35 45 52 65 77 81 81 84 81 84 84 84 74 71 71 74 71 77 81 74 71 74 74 74 74 74 68 71 71
29 13 10 0 0 0 0 0 0 0 0 0 0 3 3 0 3 3 3 23 42 45 48 55 81 84 77 77 81 84 81 81 74 74 71 74 74 81 77 74 77 71 74 74 71 71 74 71 65
10 16 10 0 0 0 0 0 0 0 0 0 0 0 0 6 6 6 10 26 39 52 52 61 81 87 84 77 77 84 81 77 74 77 77 74 84 81 81 74 74 77 74 77 71 61 65 68 68
13 6 0 0 0 0 0 0 0 0 3 0 0 0 0 3 10 13 19 39 35 48 52 68 84 87 84 77 74 84 84 84 71 68 74 77 77 74 74 71 74 74 68 68 55 55 61 61 65
3 0 0 0 0 0 0 0 0 0 0 0 0 0 0 6 16 16 19 29 29 35 52 61 84 90 81 81 74 77 77 71 71 71 77 77 71 81 68 71 77 74 68 48 48 48 55 52 61
3 3 0 0 0 0 0 0 0 0 0 0 0 0 0 3 13 10 16 19 29 39 48 61 81 84 81 84 77 71 77 77 77 74 77 77 71 77 77 71 71 65 68 61 42 45 45 52 58
6 0 0 0 0 0 0 0 0 0 0 0 0 0 0 3 10 10 13 19 26 32 48 58 65 68 74 87 81 77 71 71 71 71 74 74 68 71 81 71 61 52 52 48 42 32 35 48 45
0 0 0 0 0 0 0 0 0 0 0 0 0 0 0 0 6 10 16 16 26 29 32 35 48 52 58 61 77 81 71 74 71 71 68 68 61 58 58 68 68 55 48 55 48 39 39 42 48
0 0 0 0 0 0 0 0 0 0 0 0 0 0 0 10 6 13 16 16 19 29 23 13 29 32 42 52 61 58 65 71 68 55 65 45 26 29 39 55 61 55 58 52 55 45 42 39 39
0 0 0 0 0 0 0 0 0 0 0 0 0 3 6 13 10 10 6 6 10 13 19 13 13 16 23 45 35 32 32 39 35 19 29 6 3 3 29 42 58 58 55 52 58 55 42 35 19
0 0 0 0 0 0 0 0 0 0 0 0 0 3 6 10 6 6 6 6 6 10 13 3 10 6 10 6 10 10 6 10 10 6 3 3 3 0 0 0 13 16 29 23 19 19 16 16 10
0 0 0 0 0 0 0 0 0 0 0 0 0 3 0 0 0 3 3 3 3 0 3 3 3 0 0 3 6 6 6 6 6 3 0 0 0 0 0 0 0 3 6 6 10 6 6 10 10
0 0 0 0 0 0 0 0 0 0 0 0 0 0 0 0 0 0 0 0 0 0 3 3 0 0 0 0 3 6 6 6 0 0 0 0 0 0 0 0 0 0 0 3 3 3 6 6 3
0 3 0 0 0 0 0 0 0 0 0 0 0 0 0 0 0 0 0 0 0 0 0 0 0 3 3 3 3 3 0 0 0 0 0 0 0 0 0 0 0 0 0 0 0 0 0 0 0
0 0 0 0 0 0 0 0 0 0 0 0 0 0 0 0 0 0 3 3 3 3 0 0 6 6 10 10 6 3 0 6 3 0 0 0 0 0 0 0 3 0 0 0 0 0 0 0 0
0 0 0 0 0 0 0 0 0 0 0 0 0 0 0 0 3 3 3 3 3 6 6 10 13 13 13 10 10 3 6 6 6 3 0 0 0 0 0 0 3 0 0 0 0 0 0 0 0
0 0 0 0 0 0 0 0 0 0 0 0 0 0 0 0 3 3 6 10 10 13 10 10 10 10 10 6 3 0 3 3 3 3 3 0 3 0 0 3 6 0 0 0 0 0 0 0 3
0 0 0 0 0 0 0 0 0 0 0 0 0 0 0 3 3 3 10 10 13 13 10 10 10 10 6 3 3 3 0 0 0 0 0 0 0 0 0 3 3 0 0 0 0 0 0 0 3
0 0 0 0 0 0 0 0 0 0 0 0 0 0 0 0 0 6 10 16 13 13 10 6 6 6 3 6 6 3 3 3 0 0 0 3 6 6 0 3 3 0 0 0 0 0 0 6 6
0 0 0 0 0 0 0 0 0 0 0 0 0 0 0 0 3 13 16 16 13 13 6 6 10 10 0 3 3 0 0 0 3 0 3 6 10 6 10 3 0 0 0 3 0 0 3 3 3
0 0 0 0 0 0 0 0 0 0 0 0 0 0 0 0 3 13 16 16 16 16 10 10 10 13 6 3 6 3 0 0 6 3 0 6 10 13 10 10 10 3 3 6 3 0 0 3 3
0 0 0 0 0 0 0 0 0 0 0 0 0 0 3 3 3 13 16 16 13 13 13 13 16 16 6 6 6 3 3 3 3 3 3 10 10 13 16 16 10 6 3 3 3 6 3 3 3
0 0 0 0 0 0 0 0 0 0 0 0 0 0 3 0 3 13 16 13 13 13 16 16 13 10 6 10 6 10 3 3 0 0 3 3 3 10 13 6 6 10 6 6 3 3 3 3 3
0 0 0 0 0 0 0 0 0 0 0 0 0 0 0 0 6 13 19 13 13 16 16 19 16 6 6 13 10 10 6 6 3 3 6 3 3 6 6 6 6 6 3 3 3 3 3 3 3
0 0 0 0 0 0 0 0 0 0 3 0 0 3 0 6 6 10 13 16 16 19 13 16 13 10 13 16 16 10 6 6 3 3 6 3 3 3 6 6 3 3 3 3 3 3 3 3 3
0 0 0 0 0 0 0 0 0 0 6 6 0 3 0 6 6 10 13 16 19 19 16 23 19 19 13 13 10 6 10 6 3 3 6 3 3 3 6 3 3 3 3 3 3 3 3 3 0
0 0 0 0 0 0 0 0 3 3 6 3 3 3 3 6 6 10 10 16 19 16 19 23 23 16 16 23 13 13 16 13 6 6 3 3 3 3 6 3 3 3 3 3 3 3 3 0 0
0 0 0 0 0 0 0 0 0 3 3 3 3 6 6 10 6 6 10 16 23 26 23 26 26 23 19 16 16 19 19 19 10 10 10 3 3 3 6 3 3 3 3 3 3 3 0 0 0
0 0 0 0 0 0 0 0 0 3 0 3 6 6 10 10 6 6 13 19 23 29 29 19 19 26 23 23 19 26 19 16 16 16 16 6 6 6 6 3 3 3 3 3 3 3 0 0 0
0 0 0 0 0 0 0 0 0 3 3 6 6 6 6 6 13 10 23 23 26 29 26 19 19 23 19 23 19 23 23 16 16 16 13 6 6 10 6 6 6 6 3 3 3 3 0 0 3
Height
5877 5876 5875 5874 5872 5870 5868 5867 5866 5865 5864 5863 5862 5861 5860 5860 5861 5862 5860 5858 5857 5857 5856 5857 5856 5856 5856 5857 5857 5858 5858 5859 5859 5860 5861 5862 5863 5864 5865 5866 5867 5868 5868 5869 5869 5870 5872 5874 5876
5879 5878 5878 5876 5873 5872 5871 5869 5868 5867 5866 5865 5864 5863 5862 5862 5862 5861 5860 5860 5859 5859 5859 5858 5858 5858 5858 5859 5859 5859 5860 5860 5861 5862 5863 5864 5865 5866 5866 5867 5868 5870 5870 5871 5872 5872 5874 5875 5877
5882 5881 5881 5878 5875 5874 5873 5871 5870 5869 5868 5867 5866 5865 5865 5864 5863 5863 5862 5862 5861 5861 5861 5860 5860 5860 5860 5860 5861 5861 5862 5862 5863 5864 5865 5866 5867 5867 5868 5869 5870 5871 5872 5873 5874 5875 5876 5877 5878
5885 5884 5883 5881 5878 5877 5875 5873 5872 5871 5870 5869 5868 5867 5866 5866 5865 5865 5864 5863 5863 5863 5863 5862 5862 5862 5862 5863 5863 5863 5864 5864 5865 5866 5867 5868 5868 5869 5869 5870 5871 5872 5873 5875 5875 5876 5878 5879 5880
5888 5886 5885 5883 5881 5879 5877 5875 5874 5873 5872 5872 5871 5869 5869 5868 5868 5866 5866 5866 5865 5865 5865 5864 5864 5864 5864 5864 5865 5865 5866 5866 5867 5868 5868 5869 5869 5870 5870 5870 5871 5872 5874 5876 5877 5878 5879 5880 5882
5891 5889 5887 5885 5883 5882 5880 5878 5876 5875 5875 5874 5873 5872 5871 5871 5870 5869 5868 5868 5868 5867 5867 5866 5866 5866 5866 5866 5867 5867 5868 5868 5869 5870 5870 5871 5870 5870 5870 5871 5872 5873 5875 5877 5878 5880 5881 5882 5883
5893 5891 5889 5887 5886 5884 5882 5880 5879 5878 5877 5877 5876 5875 5874 5873 5872 5871 5871 5870 5870 5869 5869 5869 5869 5868 5868 5869 5869 5870 5870 5870 5871 5871 5872 5872 5872 5872 5872 5872 5873 5874 5876 5878 5880 5881 5882 5883 5885
5894 5894 5891 5890 5888 5887 5885 5883 5881 5881 5880 5880 5879 5877 5877 5876 5875 5873 5873 5872 5872 5871 5871 5871 5871 5871 5871 5871 5871 5872 5872 5873 5873 5874 5874 5874 5874 5874 5874 5874 5875 5876 5878 5880 5881 5882 5883 5884 5885
5896 5897 5894 5893 5891 5890 5888 5886 5885 5884 5883 5882 5881 5880 5879 5878 5877 5876 5875 5875 5874 5874 5874 5873 5873 5873 5873 5873 5874 5874 5875 5875 5876 5876 5876 5877 5877 5877 5877 5878 5878 5879 5881 5882 5883 5884 5884 5885 5886
5898 5898 5897 5896 5894 5893 5891 5889 5888 5887 5886 5885 5884 5883 5882 5881 5880 5879 5878 5877 5877 5876 5876 5876 5876 5876 5876 5876 5877 5877 5877 5877 5878 5878 5879 5879 5879 5880 5880 5881 5881 5882 5883 5884 5885 5885 5886 5886 5887
5900 5899 5899 5898 5896 5895 5894 5893 5891 5890 5889 5888 5886 5885 5884 5883 5882 5881 5881 5880 5879 5879 5879 5879 5879 5878 5879 5879 5879 5880 5880 5880 5880 5880 5881 5881 5881 5882 5882 5883 5883 5884 5885 5885 5886 5886 5887 5887 5888
5902 5901 5900 5900 5899 5898 5897 5896 5894 5893 5892 5891 5889 5888 5887 5886 5885 5884 5883 5882 5882 5881 5881 5881 5881 5881 5881 5881 5882 5882 5882 5882 5883 5883 5883 5883 5884 5884 5884 5885 5885 5886 5886 5886 5887 5887 5888 5888 5888
5904 5903 5902 5902 5901 5900 5899 5898 5897 5896 5895 5893 5892 5891 5890 5889 5888 5887 5886 5885 5884 5884 5884 5883 5883 5883 5883 5884 5884 5884 5884 5885 5885 5885 5885 5885 5885 5885 5886 5886 5886 5887 5887 5887 5888 5888 5888 5888 5888
5905 5905 5904 5904 5903 5902 5901 5901 5900 5899 5897 5896 5895 5894 5893 5892 5890 5889 5888 5888 5887 5887 5886 5886 5885 5885 5885 5886 5886 5886 5886 5887 5887 5886 5886 5886 5886 5887 5887 5887 5887 5888 5888 5888 5888 5888 5888 5888 5888
5906 5907 5906 5905 5905 5904 5904 5904 5902 5901 5900 5899 5897 5896 5895 5894 5893 5892 5891 5890 5889 5889 5889 5888 5888 5888 5888 5888 5888 5888 5888 5888 5888 5888 5888 5888 5888 5888 5888 5888 5888 5888 5888 5888 5888 5888 5888 5888 5888
5907 5908 5908 5908 5907 5906 5907 5906 5905 5903 5902 5901 5900 5899 5897 5896 5895 5894 5893 5892 5892 5891 5891 5891 5890 5890 5890 5889 5889 5889 5890 5889 5889 5889 5889 5889 5889 5889 5889 5889 5889 5889 5889 5889 5889 5889 5888 5888 5888
5908 5908 5908 5909 5908 5907 5908 5907 5906 5905 5904 5903 5902 5900 5899 5898 5897 5896 5895 5895 5894 5894 5893 5893 5892 5892 5892 5891 5891 5891 5891 5891 5891 5890 5890 5890 5890 5890 5890 5890 5889 5889 5889 5889 5889 5889 5888 5888 5888
5908 5909 5909 5909 5909 5909 5909 5908 5908 5907 5906 5904 5903 5902 5901 5900 5899 5898 5897 5897 5896 5896 5895 5895 5894 5894 5894 5893 5893 5893 5893 5892 5892 5892 5891 5891 5891 5891 5890 5890 5890 5889 5889 5889 5889 5888 5888 5887 5887
5908 5909 5909 5910 5910 5910 5909 5909 5909 5908 5907 5906 5905 5903 5902 5901 5901 5900 5899 5898 5898 5897 5897 5896 5896 5895 5895 5895 5894 5894 5894 5893 5893 5893 5892 5892 5892 5891 5891 5891 5890 5890 5889 5889 5889 5888 5887 5887 5886
5908 5909 5910 5911 5910 5910 5910 5910 5910 5909 5908 5907 5906 5905 5903 5903 5902 5901 5900 5900 5899 5899 5898 5898 5897 5897 5897 5896 5896 5895 5895 5894 5894 5894 5893 5893 5892 5892 5891 5891 5890 5890 5890 5889 5889 5888 5887 5886 5885
5907 5909 5910 5910 5910 5910 5910 5911 5911 5910 5909 5909 5907 5906 5905 5904 5903 5903 5902 5901 5900 5900 5899 5899 5899 5898 5898 5898 5897 5897 5896 5896 5895 5894 5894 5893 5893 5892 5892 5891 5890 5890 5889 5889 5888 5887 5886 5885 5884
5906 5908 5909 5909 5910 5910 5911 5911 5911 5911 5910 5910 5909 5907 5906 5906 5905 5904 5903 5902 5902 5901 5901 5900 5900 5900 5899 5899 5898 5898 5897 5897 5896 5895 5895 5894 5893 5893 5892 5891 5891 5890 5889 5888 5887 5886 5885 5884 5882
5904 5905 5907 5908 5908 5909 5910 5910 5912 5911 5911 5911 5910 5909 5908 5907 5906 5905 5904 5903 5903 5902 5902 5901 5901 5900 5900 5899 5899 5899 5898 5898 5897 5896 5895 5894 5893 5893 5892 5891 5890 5889 5888 5887 5886 5885 5884 5883 5881
5901 5903 5905 5906 5907 5908 5909 5910 5911 5911 5912 5912 5911 5910 5909 5908 5907 5906 5905 5905 5904 5903 5902 5902 5901 5900 5900 5900 5900 5899 5899 5898 5897 5896 5895 5894 5894 5893 5892 5891 5890 5889 5888 5887 5885 5884 5882 5881 5880
5899 5902 5903 5904 5905 5907 5908 5908 5910 5911 5911 5911 5911 5911 5910 5909 5908 5907 5906 5905 5904 5904 5903 5902 5901 5901 5901 5900 5900 5899 5899 5898 5897 5896 5895 5894 5893 5893 5892 5891 5889 5888 5887 5885 5884 5883 5881 5879 5878
5896 5899 5902 5903 5904 5906 5906 5907 5910 5910 5910 5911 5911 5910 5910 5909 5908 5908 5906 5905 5905 5904 5903 5903 5902 5901 5901 5901 5900 5899 5898 5897 5897 5896 5895 5894 5893 5892 5891 5890 5889 5888 5886 5885 5883 5881 5880 5878 5876
5892 5895 5898 5900 5901 5903 5904 5907 5908 5909 5909 5910 5910 5910 5909 5909 5908 5908 5906 5905 5905 5904 5903 5903 5902 5902 5901 5900 5899 5899 5898 5897 5896 5895 5895 5894 5893 5892 5891 5889 5888 5886 5885 5883 5882 5880 5878 5877 5875
5889 5892 5894 5896 5898 5900 5902 5904 5907 5907 5908 5909 5909 5909 5909 5908 5908 5907 5906 5905 5905 5904 5903 5903 5902 5902 5901 5900 5899 5898 5897 5896 5895 5895 5894 5893 5892 5891 5889 5888 5887 5885 5884 5882 5880 5879 5877 5875 5873
5885 5888 5890 5893 5896 5898 5900 5904 5905 5905 5906 5907 5908 5908 5908 5908 5907 5907 5906 5905 5905 5904 5903 5902 5902 5901 5900 5899 5899 5898 5896 5895 5895 5894 5893 5892 5890 5889 5888 5886 5885 5884 5882 5881 5879 5877 5875 5873 5871
5880 5883 5887 5890 5893 5895 5897 5903 5902 5903 5904 5905 5906 5907 5907 5907 5906 5906 5905 5904 5904 5903 5902 5901 5901 5900 5900 5899 5898 5897 5896 5895 5894 5893 5892 5890 5889 5888 5886 5885 5883 5882 5880 5879 5877 5875 5873 5871 5869
Wind_Speed
20 20 19 18 19 18 19 19 18 17 16 16 16 15 14 14 13 12 11 10 8 8 8 9 11 12 12 12 11 10 10 11 11 11 10 10 10 10 9 9 8 9 9 8 9 10 10 10 9
19 20 19 19 19 19 19 19 19 18 17 17 17 16 15 14 13 12 11 10 9 9 9 10 11 12 12 12 11 11 11 11 11 10 10 10 10 10 10 10 9 9 9 9 10 10 10 10 9
19 19 19 19 19 19 20 19 19 18 17 16 16 16 15 14 13 12 11 11 10 10 10 11 12 12 12 12 11 11 11 11 11 11 10 10 9 10 9 9 9 9 9 9 10 10 10 9 9
18 19 19 19 19 20 20 20 19 18 17 17 16 16 15 14 13 13 12 11 11 11 11 12 12 12 12 13 12 12 11 11 12 11 10 9 9 9 9 9 10 10 9 10 9 9 9 9 9
18 18 19 18 19 20 20 20 19 19 17 16 16 15 14 13 13 13 13 12 12 12 12 12 12 12 12 12 12 12 12 11 11 11 10 9 9 9 8 9 9 9 9 9 10 9 9 9 8
18 18 19 19 19 20 20 20 19 18 17 16 16 16 15 14 14 14 13 13 12 12 12 12 12 12 12 12 12 12 12 12 11 11 10 10 9 9 8 9 9 10 10 10 9 8 8 7 7
19 20 20 20 19 19 20 20 19 18 17 15 15 15 15 14 13 14 14 13 13 13 13 13 12 13 12 13 13 13 13 12 12 11 10 10 10 10 9 9 9 10 10 9 9 7 7 6 5
18 19 20 20 20 20 20 20 19 18 16 15 15 15 15 14 13 14 14 13 14 13 13 13 13 13 13 13 14 14 13 12 11 11 10 10 10 10 10 10 10 10 9 8 7 6 6 5 4
16 17 19 20 20 20 20 20 19 18 16 15 14 15 15 14 13 14 14 14 14 14 13 13 12 13 13 13 13 13 13 12 11 11 11 11 11 10 10 10 9 9 8 7 6 6 5 4 4
14 16 17 18 19 19 19 19 19 18 16 15 14 14 14 14 14 14 14 14 14 14 13 13 13 12 12 12 12 12 12 12 12 11 11 11 11 10 10 9 9 8 7 7 6 5 4 4 3
13 14 15 16 18 18 18 18 18 18 17 15 15 14 13 13 13 13 14 14 14 13 13 13 13 12 12 12 12 12 11 11 11 12 11 10 10 9 9 8 7 7 6 5 5 4 3 3 2
11 13 14 15 16 17 17 17 18 18 17 16 15 14 13 13 13 13 12 13 13 13 12 12 12 12 11 11 11 11 11 10 10 10 10 10 8 8 8 7 7 6 5 5 4 3 2 1 1
8 10 13 13 14 16 16 16 16 17 17 16 15 13 13 12 12 12 12 12 12 13 13 12 12 12 10 10 11 11 10 9 9 8 8 7 7 6 6 6 5 4 4 4 3 2 1 1 1
6 8 11 12 13 14 15 15 15 16 15 15 14 13 13 12 12 12 12 12 12 13 12 12 12 12 11 10 10 10 9 8 7 7 6 6 6 5 5 5 4 4 3 2 2 2 1 1 2
4 6 8 10 12 13 14 15 15 15 15 14 14 13 12 13 13 12 12 12 12 12 12 11 11 11 10 10 9 8 8 7 7 7 6 5 5 4 4 4 3 3 3 2 2 2 3 2 3
3 4 6 8 10 11 12 13 13 14 14 14 13 13 13 13 13 13 12 12 11 11 11 11 10 9 9 9 8 7 7 6 6 6 6 6 5 5 4 3 2 2 2 2 2 2 2 3 3
3 3 3 5 7 9 10 11 11 12 12 12 13 12 12 12 12 12 11 11 11 11 10 10 10 9 8 8 8 7 6 6 6 5 5 5 4 4 4 3 2 2 2 2 3 3 3 4 4
4 2 2 3 4 6 7 8 9 10 10 10 11 11 12 11 11 11 10 10 10 10 10 9 8 8 8 8 7 7 6 5 5 4 4 4 4 4 4 3 3 3 3 2 3 4 4 4 5
5 3 1 1 2 3 4 5 7 8 8 9 9 10 10 11 11 11 10 10 9 9 9 8 8 7 7 8 7 7 6 5 5 4 3 3 3 3 4 4 3 4 4 3 4 5 5 5 5
8 6 4 2 1 1 2 4 5 6 6 7 8 8 9 9 10 10 10 9 9 9 8 8 8 7 7 7 7 7 6 6 5 5 4 3 3 4 4 4 4 4 5 5 5 6 6 6 7
10 8 7 5 3 2 1 2 3 4 5 6 7 8 8 8 9 10 10 9 9 9 8 8 8 7 7 6 6 6 6 6 6 5 5 4 4 4 4 5 5 5 6 6 6 7 8 8 8
11 10 10 8 6 4 2 1 2 3 4 4 5 7 8 8 9 9 9 9 9 8 8 8 8 7 7 6 6 6 6 6 6 6 6 5 5 5 5 6 6 6 6 7 7 8 8 9 9
14 13 12 10 8 6 4 2 1 2 3 3 4 6 7 8 8 9 9 9 8 8 7 7 7 6 6 6 6 6 5 6 6 6 6 6 6 6 6 6 7 7 7 7 8 8 9 10 10
17 15 14 12 10 9 6 5 2 0 2 2 2 4 5 6 7 7 7 8 8 8 7 6 6 6 6 6 6 5 5 5 6 6 6 6 6 6 6 7 8 8 8 9 9 9 10 11 11
20 18 16 14 12 10 8 7 3 2 1 1 2 2 3 4 5 6 6 6 7 7 7 6 5 5 6 6 6 5 5 5 6 6 6 6 6 7 7 8 8 8 9 10 10 10 11 11 11
21 20 18 16 14 12 10 9 5 4 3 2 1 2 2 2 3 4 4 5 5 6 6 6 5 5 5 5 5 5 5 5 5 6 6 7 7 7 8 8 9 9 9 10 10 10 11 12 12
22 20 19 18 16 14 13 10 8 6 5 5 4 4 2 2 2 2 3 4 4 5 5 6 5 5 6 6 6 6 5 5 5 6 6 7 7 8 9 9 9 10 10 10 10 11 11 12 12
24 22 21 20 18 17 14 12 9 8 8 7 6 6 4 3 2 2 3 4 4 5 5 5 4 5 6 6 7 7 6 6 6 6 6 7 8 8 9 9 10 10 10 10 11 11 11 12 12
27 25 24 22 21 20 17 14 11 10 9 8 7 7 6 4 3 2 3 4 5 5 5 5 5 5 6 7 7 8 7 7 7 7 7 8 9 9 10 10 10 10 10 11 11 11 12 12 12
30 28 26 25 22 21 19 16 13 11 11 9 8 7 6 5 4 3 3 4 5 6 6 5 5 5 6 7 7 7 7 7 7 7 8 9 10 10 11 11 11 11 11 12 12 13 13 13 13
Wind_Direction
62 57 54 56 57 57 59 60 60 60 58 56 56 57 60 62 64 65 67 69 73 78 89 90 90 88 90 91 93 96 95 98 103 108 109 110 113 112 115 121 122 118 121 122 121 126 131 135 138
60 56 55 56 57 57 58 59 58 57 57 57 59 60 61 64 65 64 66 70 75 84 89 90 91 90 91 94 97 98 98 98 105 109 110 113 112 111 115 120 121 121 124 125 123 124 128 130 131
60 58 57 58 58 57 57 58 58 56 56 57 60 61 59 62 66 67 67 70 77 88 92 90 90 91 92 95 99 101 102 99 103 110 112 113 114 113 116 120 123 125 126 130 127 126 127 129 130
62 62 58 58 58 58 58 57 58 56 54 56 59 59 58 63 69 71 74 76 79 89 93 92 93 94 95 98 98 102 104 100 103 109 109 110 115 114 118 120 125 125 128 130 130 128 128 131 133
63 63 59 58 57 58 58 58 57 55 52 54 57 59 59 66 71 72 76 76 79 88 93 96 96 95 94 96 96 98 97 101 103 107 108 108 110 111 112 117 127 131 132 130 129 128 130 130 131
61 62 60 58 56 58 59 57 57 56 52 53 58 62 63 67 69 73 76 77 80 86 92 96 94 96 96 94 93 93 94 102 103 103 104 102 105 107 108 116 125 131 131 127 126 129 133 133 135
61 60 58 58 56 58 59 58 56 54 53 54 59 65 67 67 67 72 76 77 82 87 90 95 95 95 95 95 94 92 94 98 100 99 100 102 105 104 107 112 116 120 122 123 125 126 129 134 139
61 60 58 57 56 56 58 57 55 54 53 54 58 63 66 66 68 74 77 77 79 85 86 91 92 93 93 94 92 92 92 94 98 96 96 97 100 99 97 103 110 115 121 124 127 130 132 135 146
64 62 58 56 57 57 58 58 55 56 56 56 57 59 61 64 67 72 76 79 80 82 86 88 91 93 92 93 93 94 94 93 93 92 88 92 97 98 98 102 108 113 120 124 126 125 129 134 144
67 63 59 56 59 58 59 58 56 56 57 57 58 58 60 62 65 70 73 78 81 80 86 88 88 92 94 93 94 95 96 93 90 89 90 91 92 94 99 101 104 108 117 125 125 122 126 138 150
70 65 61 58 59 61 60 58 56 55 56 57 57 57 60 62 66 69 72 75 77 79 83 88 90 89 93 95 96 96 94 94 91 92 93 93 90 91 95 98 100 104 108 117 126 127 125 134 161
75 70 65 61 60 60 59 58 56 55 55 56 56 56 58 60 64 69 72 75 75 78 82 85 89 89 93 95 95 96 95 96 96 94 94 96 94 93 95 99 100 100 101 105 116 129 128 130 181
74 73 70 64 60 60 58 55 55 53 55 57 58 58 59 62 65 69 74 77 76 77 80 82 83 86 91 91 93 96 96 94 93 92 93 95 98 100 98 100 99 96 92 91 97 128 153 201 251
71 70 71 66 61 59 57 51 51 50 52 56 56 58 62 64 66 68 72 77 77 77 78 79 80 83 86 90 90 92 95 95 89 87 89 90 94 99 101 102 96 88 82 78 65 45 17 286 264
90 71 70 70 68 62 58 53 51 48 50 55 54 56 62 66 67 68 70 73 76 76 76 77 79 81 83 85 86 89 91 91 87 79 80 82 91 96 101 98 89 81 77 65 31 8 357 332 311
133 93 80 77 75 67 58 53 49 47 47 52 52 56 61 65 66 69 70 71 73 75 76 77 78 77 77 79 82 90 89 85 79 73 72 74 81 80 81 86 77 60 46 31 4 345 344 330 326
169 124 97 88 76 69 60 53 50 46 45 48 52 54 58 64 67 70 71 72 73 73 73 75 76 74 73 74 77 83 83 79 74 71 68 68 67 63 57 53 35 21 13 355 340 332 322 314 309
188 156 112 96 70 68 62 56 49 43 42 45 51 54 57 60 65 69 71 73 74 73 73 72 74 73 71 71 74 74 73 71 68 65 65 70 64 51 42 31 19 14 14 356 341 341 323 311 306
195 189 185 137 88 57 55 55 50 41 39 45 57 56 54 57 61 66 68 70 71 70 71 72 72 75 75 69 69 71 68 64 61 60 63 60 49 32 24 22 22 22 14 356 343 337 331 316 312
198 199 207 200 219 339 32 50 48 38 37 49 59 57 54 56 58 61 62 66 64 64 66 66 69 73 72 69 67 67 63 57 49 45 45 42 30 19 13 8 3 3 360 349 338 332 328 318 316
209 211 218 227 240 284 352 50 46 40 39 45 55 58 57 59 57 58 60 60 59 58 60 61 63 66 67 63 60 59 57 51 45 41 39 35 19 9 6 5 356 343 339 338 333 328 328 321 314
216 216 220 229 241 242 249 34 64 53 42 39 55 61 61 61 60 58 57 56 55 53 53 56 58 63 61 56 53 52 53 47 42 40 36 30 22 11 4 358 353 344 338 337 335 332 328 323 320
217 219 223 230 236 231 240 247 139 52 48 50 60 61 58 57 57 56 55 51 47 45 44 47 49 54 50 49 47 46 46 42 36 32 28 23 15 8 1 350 345 341 337 333 329 328 326 322 320
218 220 224 227 231 232 240 253 242 281 52 58 66 63 59 58 52 49 49 46 39 37 38 43 46 42 38 43 43 39 37 33 28 24 21 15 8 2 356 350 345 341 338 335 328 326 325 320 319
218 222 225 229 231 235 240 248 246 255 294 18 46 55 57 59 51 44 46 42 35 30 30 38 36 40 41 40 33 29 26 23 18 13 8 4 360 354 350 347 344 341 338 336 332 326 326 324 321
222 227 229 234 237 239 241 247 242 253 261 272 317 348 24 41 51 47 42 40 30 26 26 34 31 38 28 23 18 16 13 7 5 2 359 356 352 350 346 344 344 342 337 335 332 328 325 325 323
224 228 230 232 235 240 242 248 252 257 262 272 290 307 329 345 7 30 33 28 20 16 19 25 25 25 17 17 13 9 2 356 353 351 350 347 343 342 342 339 339 340 339 336 333 330 326 327 325
224 228 230 230 234 240 243 249 257 258 260 270 285 292 297 302 314 337 3 11 6 3 6 12 10 10 12 11 7 6 2 357 353 345 341 340 337 336 333 329 331 332 333 333 332 331 329 327 325
225 227 230 230 234 239 241 245 250 251 256 264 281 288 289 276 287 313 339 344 344 346 351 1 354 354 1 5 4 1 359 355 349 343 340 338 335 333 331 329 328 329 330 330 330 330 328 327 323
226 229 231 231 234 237 240 243 245 247 250 258 270 279 284 272 269 291 311 329 338 343 344 349 359 357 355 357 359 360 359 355 346 339 334 332 333 331 330 329 326 325 326 325 328 330 328 325 322